Regional Weather Roundup
Issued by NWS Sioux Falls, SD

Home | Current Version | Previous Version | Text Only | Print | Product List | Glossary On
Versions: 1 2 3 4 5 6 7 8 9 10 11 12 13 14 15 16 17 18 19 20 21 22 23 24 25 26 27 28 29 30 31 32 33 34 35 36 37 38 39 40 41 42 43 44 45 46 47 48 49 50
000
ASUS43 KFSD 291510
RWRFSD

WEATHER ROUNDUP FOR SE SOUTH DAKOTA/SW MINNESOTA/NW IOWA
NATIONAL WEATHER SERVICE SIOUX FALLS SD
1000 AM CDT WED MAR 29 2017

NOTE: "FAIR" INDICATES FEW OR NO CLOUDS BELOW 12,000 FEET WITH NO
SIGNIFICANT WEATHER AND OR OBSTRUCTIONS TO VISIBILITY.


SDZ038>040-050-052>070-291600-
SOUTHEAST SOUTH DAKOTA

CITY           SKY/WX    TMP DP  RH WIND       PRES   REMARKS
BROOKINGS      CLOUDY    49  39  68 E7        30.15R
CHAMBERLAIN    PTSUNNY   49  44  85 N5        30.12S
HURON          CLOUDY    48  39  71 E6        30.14F
MADISON        FAIR      45  45 100 E10       30.15R
MITCHELL       PTSUNNY   49  41  74 E9        30.14S
SIOUX FALLS    LGT RAIN  47  42  83 E9        30.15S
WINNER         PTSUNNY   47  44  90 N12       30.12S
YANKTON        CLOUDY    46  41  81 E15       30.11F
$$

MNZ071-072-080-081-089-090-097-098-291600-
SOUTHWEST MINNESOTA

CITY           SKY/WX    TMP DP  RH WIND       PRES   REMARKS
FAIRMONT       CLOUDY    44  38  79 SE12      30.19S
JACKSON        CLOUDY    43  37  81 E5        30.17F
LUVERNE        CLOUDY    45  39  81 E7        30.16S
MARSHALL       CLOUDY    44  36  73 SE5       30.19S
MONTEVIDEO     CLOUDY    45  36  70 SE8       30.20R
PIPESTONE      CLOUDY    48  37  66 SE9       30.15S
REDWOOD FALLS  CLOUDY    47  36  65 VRB6      30.20R
TRACY          CLOUDY    45  38  78 SE6       30.19S
WINDOM         PTSUNNY   46  39  76 E5        30.17F
WORTHINGTON    LGT RAIN  43  40  89 E7        30.16F
$$

IAZ001>003-012>014-020>022-031-032-NEZ013-014-SDZ071-291600-
NORTHWEST IOWA

CITY           SKY/WX    TMP DP  RH WIND       PRES   REMARKS
CHEROKEE       DRIZZLE   43  42  96 NE7       30.11S
DENISON        CLOUDY    43  43 100 E15G25    30.07R FOG
ESTHERVILLE    LGT RAIN  43  41  93 E7        30.16F FOG
LE MARS        LGT RAIN  45  43  93 E13G23    30.12F
ORANGE CITY    LGT RAIN  43  43 100 E14       30.11F
SHELDON        CLOUDY    45  41  87 E16       30.12F
SIOUX CITY     LGT RAIN  45  44  97 NE12      30.08F
SPENCER        LGT RAIN  44  40  85 E15       30.16S
STORM LAKE     MIX PCPN  43  41  93 E10       30.09F
$$

ABBREVIATIONS USED IN REMARKS
   TC - TEMPERATURE IN CELSIUS
  WCI - WIND CHILL INDEX
   HX - HEAT INDEX
  VSB - VISIBILITY




USA.gov is the U.S. government's official web portal to all federal, state and local government web resources and services.